Tracking 29487 objects as of 11-Sep-2024
HD Live streaming from Space Station
objects crossing your sky now

THOR ABLESTAR DEB

Track THOR ABLESTAR DEB now!
10-day predictions


NORAD ID: 656
Int'l Code: 1961-015HH
Perigee: 872.1 km
Apogee: 1,897.6 km
Inclination: 66.3 °
Period: 113.3 minutes
Semi major axis: 7755 km
RCS: 0.0195 m2 (small)
Launch date: June 29, 1961
Source: United States (US)
Launch site: AIR FORCE EASTERN TEST RANGE (AFETR)

Note: This is SATELLITE DEBRIS
Your satellite tracking list
Your tracking list is empty




NASA's NSSDC Master Catalog

Two Line Element Set (TLE):
1 00656U 61015HH  24255.61243306  .00004030  00000-0  83692-2 0  9990
2 00656  66.2906  77.9300 0661113  76.9361 290.4556 12.71048842885137
Source of the keplerian elements: AFSPC